Montrose, CO

10:26 PM MDT on August 23, 2016 (GMT -0600)
Montrose Regional

Weather History for KMTJ - August, 2012

Change the Weather History Date:

Wednesday, August 29, 2012

  Actual Average Record
Temperature  
Mean Temperature 76 °F 68 °F  
Max Temperature 93 °F 83 °F 93 °F (1998)
Min Temperature 58 °F 53 °F 43 °F (2004)
Degree Days  
Heating Degree Days 0 1  
Month to date heating degree days 0 1  
Since 1 June heating degree days 6 40  
Since 1 July heating degree days 0 1  
Cooling Degree Days 11 4  
Month to date cooling degree days 237 177  
Year to date cooling degree days 839 599  
Since 1 June cooling degree days 816 582  
Growing Degree Days 24 (Base 50)    
Moisture  
Dew Point 47 °F    
Average Humidity 43    
Maximum Humidity 72    
Minimum Humidity 14    
Precipitation  
Precipitation 0.00 in 0.05 in 0.21 in (2011)
Month to date precipitation 0.74 1.17  
Year to date precipitation 4.05 7.24  
Sea Level Pressure  
Sea Level Pressure 29.93 in    
Wind  
Wind Speed 6 mph (SSE)    
Max Wind Speed 20 mph    
Max Gust Speed 23 mph    
Visibility 10 miles    
Events      
T = Trace of Precipitation, MM = Missing Value Source: NWS Daily Summary

Daily Weather History Graph

Daily Weather History Graph

Search for Another Location

Airport or City:

Trip Planner

Search our weather history database for the weather conditions in past years. The results will help you decide how hot, cold, wet, or windy it might be!

Date:

Astronomy

Aug. 29, 2012 Rise Set
Actual Time 6:38 AM MDT 7:45 PM MDT
Civil Twilight 6:11 AM MDT 8:12 PM MDT
Nautical Twilight 5:38 AM MDT 8:44 PM MDT
Astronomical Twilight 5:05 AM MDT 9:18 PM MDT
Moon 6:27 PM MDT (8/29) 4:38 AM MDT (8/29)
Length of Visible Light 14h 00m
Length of Day
13h 06m
Waxing Gibbous, 96% of the Moon is Illuminated
Aug 29
Waxing Gibbous
Aug 31
Full
Sep 8
Last Quarter
Sep 15
New
Sep 22
First Quarter

Hourly Weather History & Observations

Time (MDT) Temp. Dew Point Humidity Pressure Visibility Wind Dir Wind Speed Gust Speed Precip Events Conditions
12:53 AM 64.0 °F 48.9 °F 58% 30.00 in 10.0 mi SSE 4.6 mph - N/A   Clear
1:53 AM 64.0 °F 50.0 °F 60% 29.98 in 10.0 mi South 3.5 mph - N/A   Clear
2:53 AM 64.0 °F 51.1 °F 63% 29.97 in 10.0 mi South 5.8 mph - N/A   Clear
3:53 AM 63.0 °F 51.1 °F 65% 29.97 in 10.0 mi South 3.5 mph - N/A   Clear
4:53 AM 61.0 °F 50.0 °F 67% 29.98 in 10.0 mi SE 4.6 mph - N/A   Clear
5:53 AM 60.1 °F 48.9 °F 67% 30.00 in 10.0 mi South 6.9 mph - N/A   Clear
6:53 AM 57.9 °F 48.9 °F 72% 30.02 in 10.0 mi South 4.6 mph - N/A   Clear
7:53 AM 62.1 °F 48.9 °F 62% 30.02 in 10.0 mi SE 5.8 mph - N/A   Clear
8:53 AM 68.0 °F 48.0 °F 49% 30.02 in 10.0 mi Calm Calm - N/A   Clear
9:53 AM 75.0 °F 48.9 °F 40% 29.99 in 10.0 mi South 4.6 mph - N/A   Clear
10:53 AM 79.0 °F 48.0 °F 34% 29.99 in 10.0 mi Calm Calm - N/A   Clear
11:53 AM 84.9 °F 45.0 °F 25% 29.95 in 10.0 mi Calm Calm - N/A   Clear
12:53 PM 87.1 °F 46.0 °F 24% 29.92 in 10.0 mi North 4.6 mph - N/A   Clear
1:53 PM 90.0 °F 44.1 °F 20% 29.88 in 10.0 mi NNW 6.9 mph - N/A   Clear
2:53 PM 91.9 °F 36.0 °F 14% 29.86 in 10.0 mi NNW 5.8 mph - N/A   Clear
3:53 PM 91.0 °F 42.1 °F 18% 29.83 in 10.0 mi Variable 4.6 mph - N/A   Clear
4:53 PM 91.0 °F 42.1 °F 18% 29.83 in 10.0 mi NNW 8.1 mph - N/A   Clear
5:53 PM 87.1 °F 44.1 °F 22% 29.84 in 10.0 mi South 6.9 mph - N/A   Clear
6:53 PM 84.0 °F 45.0 °F 25% 29.86 in 10.0 mi South 13.8 mph - N/A   Clear
7:53 PM 81.0 °F 44.1 °F 27% 29.85 in 10.0 mi South 10.4 mph - N/A   Clear
10:53 PM 77.0 °F 46.9 °F 34% 29.89 in 10.0 mi SE 6.9 mph - N/A   Mostly Cloudy
11:53 PM 75.9 °F 46.0 °F 35% 29.87 in 10.0 mi SSE 9.2 mph - N/A   Clear